Simultaneous Nadir Overpasses (SNOs) Predictions

Prediction of SNOs between GOES-14 and NOAA-20 Satellite Orbit:

Table of predicted SNOs for the next 14.0 days since TLE Epoch: 7/15/2024
Index Date Time (GOES-14) GOES-14 Lat,Lon NOAA-20 Lat,Lon Distance(km) Time Diff (sec)
1 07/15/2024 08:38:53 -0.24,-108.51 -0.29,-108.32 21.46 80
2 07/17/2024 20:39:26 0.26,-108.46 0.11,-109.10 73.72 80
3 07/18/2024 20:23:22 0.25,-108.45 1.11,-104.57 442.27 80
4 07/20/2024 08:42:30 -0.29,-108.48 0.04,-109.85 156.39 80
5 07/21/2024 08:26:25 -0.27,-108.48 -0.97,-105.32 359.06 80
6 07/22/2024 20:45:43 0.31,-108.42 -0.21,-110.64 253.20 80
7 07/23/2024 20:29:38 0.29,-108.42 0.80,-106.11 262.85 80
8 07/25/2024 08:48:47 -0.33,-108.46 0.34,-111.39 334.50 80
9 07/26/2024 08:32:42 -0.31,-108.45 -0.67,-106.86 181.19 80
10 07/27/2024 20:51:59 0.35,-108.39 -0.49,-112.18 431.73 80
11 07/28/2024 20:35:55 0.33,-108.38 0.53,-107.65 84.24 80
